| time (UTC) | temp F | wind direction | speed MPH | gust MPH | rain 1hr in | rain 24hr in | rain mn in | humidity % | barometer mb |
| 20260504174504 | 64 | 293 | 12.0 | 28.0 | 0.00 | 0.00 | 0.00 | 33 | 1008.1 |
| 20260504173503 | 64 | 288 | 10.0 | 23.0 | 0.00 | 0.00 | 0.00 | 33 | 1008.0 |
| 20260504172505 | 64 | 304 | 7.0 | 25.0 | 0.00 | 0.00 | 0.00 | 32 | 1008.1 |
| 20260504171503 | 64 | 280 | 9.0 | 28.0 | 0.00 | 0.00 | 0.00 | 33 | 1008.1 |
| 20260504170504 | 63 | 353 | 16.0 | 28.0 | 0.00 | 0.00 | 0.00 | 33 | 1008.2 |
| 20260504150503 | 59 | 310 | 14.0 | 23.0 | 0.00 | 0.00 | 0.00 | 41 | 1009.3 |
| 20260504140504 | 57 | 293 | 12.0 | 23.0 | 0.00 | 0.00 | 0.00 | 45 | 1009.9 |
| 20260504130503 | 53 | 274 | 9.0 | 17.0 | 0.00 | 0.00 | 0.00 | 52 | 1010.2 |
| 20260504110503 | 47 | 284 | 6.0 | 10.0 | 0.00 | 0.00 | 0.00 | 59 | 1010.7 |
| 20260504081504 | 45 | 291 | 10.0 | 15.0 | 0.00 | 0.00 | 0.00 | 60 | 1010.5 |
| 20260504080504 | 44 | 285 | 9.0 | 15.0 | 0.00 | 0.00 | 0.00 | 60 | 1010.5 |
| 20260504050503 | 42 | 282 | 6.0 | 10.0 | 0.00 | 0.02 | 0.00 | 58 | 1010.5 |
| 20260504044504 | 41 | 282 | 7.0 | 12.0 | 0.00 | 0.02 | 0.00 | 59 | 1010.7 |
| 20260504043504 | 40 | 282 | 3.0 | 7.0 | 0.00 | 0.02 | 0.00 | 64 | 1010.7 |
| 20260504042504 | 39 | 282 | 3.0 | 8.0 | 0.00 | 0.02 | 0.00 | 67 | 1010.7 |
| 20260504041504 | 36 | 283 | 3.0 | 7.0 | 0.00 | 0.02 | 0.00 | 77 | 1010.6 |
| 20260504040503 | 36 | 261 | 0.0 | 7.0 | 0.00 | 0.02 | 0.00 | 80 | 1010.5 |
| 20260504035504 | 34 | 277 | 2.0 | 6.0 | 0.00 | 0.02 | 0.02 | 82 | 1010.5 |
| 20260504032503 | 34 | 277 | 2.0 | 3.0 | 0.00 | 0.02 | 0.02 | 84 | 1010.4 |
| 20260504031504 | 34 | 278 | 2.0 | 3.0 | 0.00 | 0.02 | 0.02 | 82 | 1010.4 |
| 20260504030504 | 35 | 281 | 0.0 | 0.0 | 0.00 | 0.02 | 0.02 | 81 | 1010.3 |
| 20260504025504 | 35 | 281 | 0.0 | 0.0 | 0.00 | 0.02 | 0.02 | 82 | 1010.3 |
| 20260504024504 | 35 | 281 | 0.0 | 0.0 | 0.00 | 0.02 | 0.02 | 81 | 1010.3 |
| 20260504023504 | 35 | 281 | 0.0 | 0.0 | 0.00 | 0.02 | 0.02 | 82 | 1010.3 |
| 20260504022504 | 36 | 281 | 0.0 | 0.0 | 0.00 | 0.02 | 0.02 | 81 | 1010.3 |
| 20260504021504 | 36 | 281 | 0.0 | 0.0 | 0.00 | 0.04 | 0.02 | 78 | 1010.3 |
| 20260504020503 | 37 | 281 | 0.0 | 0.0 | 0.00 | 0.04 | 0.02 | 78 | 1010.2 |
| 20260504015503 | 37 | 281 | 0.0 | 0.0 | 0.00 | 0.05 | 0.02 | 76 | 1010.2 |
| 20260504014504 | 38 | 281 | 0.0 | 0.0 | 0.00 | 0.05 | 0.02 | 74 | 1010.2 |
| 20260504013504 | 39 | 281 | 0.0 | 0.0 | 0.00 | 0.08 | 0.02 | 71 | 1010.0 |
| 20260504012504 | 40 | 281 | 1.0 | 3.0 | 0.00 | 0.09 | 0.02 | 69 | 1010.0 |
| 20260504011504 | 41 | 244 | 0.0 | 0.0 | 0.00 | 0.09 | 0.02 | 64 | 1009.9 |
| 20260504010503 | 42 | 244 | 0.0 | 0.0 | 0.00 | 0.09 | 0.02 | 63 | 1009.7 |
| 20260504004504 | 43 | 258 | 0.0 | 0.0 | 0.00 | 0.10 | 0.02 | 57 | 1009.3 |
| 20260504003504 | 44 | 258 | 0.0 | 0.0 | 0.00 | 0.10 | 0.02 | 56 | 1009.3 |
| 20260504002504 | 45 | 258 | 0.0 | 0.0 | 0.00 | 0.10 | 0.02 | 53 | 1009.1 |
| 20260504001504 | 46 | 258 | 0.0 | 10.0 | 0.00 | 0.10 | 0.02 | 52 | 1009.0 |
| 20260504000503 | 46 | 265 | 0.0 | 9.0 | 0.00 | 0.10 | 0.02 | 51 | 1008.9 |
| 20260503235503 | 47 | 282 | 0.0 | 7.0 | 0.00 | 0.10 | 0.02 | 51 | 1008.8 |
| 20260503234504 | 47 | 265 | 3.0 | 9.0 | 0.00 | 0.10 | 0.02 | 48 | 1008.8 |
| 20260503232504 | 47 | 269 | 6.0 | 18.0 | 0.00 | 0.10 | 0.02 | 46 | 1008.6 |
| 20260503231504 | 48 | 278 | 5.0 | 13.0 | 0.00 | 0.10 | 0.02 | 46 | 1008.5 |
| 20260503230504 | 48 | 284 | 1.0 | 9.0 | 0.00 | 0.10 | 0.02 | 47 | 1008.4 |
| 20260503225504 | 47 | 274 | 1.0 | 9.0 | 0.00 | 0.10 | 0.02 | 48 | 1008.4 |
| 20260503223505 | 47 | 271 | 2.0 | 14.0 | 0.00 | 0.15 | 0.02 | 47 | 1008.4 |
| 20260503221503 | 47 | 266 | 7.0 | 12.0 | 0.00 | 0.15 | 0.02 | 47 | 1008.2 |
| 20260503220504 | 47 | 271 | 7.0 | 18.0 | 0.00 | 0.15 | 0.02 | 47 | 1008.1 |
| 20260503215504 | 47 | 264 | 9.0 | 18.0 | 0.00 | 0.15 | 0.02 | 46 | 1008.1 |
| 20260503213504 | 47 | 275 | 12.0 | 22.0 | 0.00 | 0.15 | 0.02 | 44 | 1008.1 |
| 20260503212504 | 48 | 247 | 13.0 | 22.0 | 0.00 | 0.15 | 0.02 | 43 | 1007.9 |
| 20260503211503 | 48 | 251 | 9.0 | 20.0 | 0.00 | 0.15 | 0.02 | 44 | 1007.7 |
| 20260503210504 | 48 | 271 | 9.0 | 20.0 | 0.00 | 0.15 | 0.02 | 45 | 1007.6 |
| 20260503205504 | 48 | 262 | 5.0 | 23.0 | 0.00 | 0.15 | 0.02 | 45 | 1007.6 |
| 20260503204504 | 48 | 261 | 8.0 | 17.0 | 0.00 | 0.15 | 0.02 | 44 | 1007.5 |
| 20260503203504 | 48 | 249 | 10.0 | 20.0 | 0.00 | 0.17 | 0.02 | 45 | 1007.5 |
| 20260503202504 | 48 | 263 | 6.0 | 23.0 | 0.00 | 0.18 | 0.02 | 46 | 1007.4 |
| 20260503201504 | 47 | 260 | 13.0 | 24.0 | 0.00 | 0.18 | 0.02 | 45 | 1007.4 |
| 20260503200503 | 47 | 245 | 12.0 | 23.0 | 0.00 | 0.18 | 0.02 | 45 | 1007.3 |
| 20260503193503 | 48 | 245 | 11.0 | 22.0 | 0.00 | 0.24 | 0.02 | 46 | 1007.2 |
| 20260503192503 | 49 | 260 | 10.0 | 18.0 | 0.00 | 0.24 | 0.02 | 44 | 1007.1 |
| 20260503191504 | 48 | 244 | 8.0 | 28.0 | 0.00 | 0.24 | 0.02 | 43 | 1007.3 |
| 20260503190504 | 48 | 308 | 13.0 | 23.0 | 0.00 | 0.24 | 0.02 | 44 | 1007.2 |
| 20260503185504 | 47 | 280 | 12.0 | 21.0 | 0.00 | 0.24 | 0.02 | 46 | 1007.1 |
| 20260503184503 | 47 | 271 | 9.0 | 26.0 | 0.00 | 0.27 | 0.02 | 46 | 1007.2 |
| 20260503183504 | 48 | 255 | 13.0 | 25.0 | 0.00 | 0.27 | 0.02 | 45 | 1007.1 |
| 20260503181504 | 47 | 266 | 10.0 | 23.0 | 0.00 | 0.27 | 0.02 | 48 | 1007.2 |
| 20260503180504 | 48 | 245 | 11.0 | 26.0 | 0.00 | 0.27 | 0.02 | 46 | 1007.1 |
| 20260503175504 | 48 | 265 | 9.0 | 24.0 | 0.00 | 0.27 | 0.02 | 47 | 1007.0 |